Location: Avila Camacho
(32.4577°N, 116.8560°W)
Time: 13:34:58
(UTC+00:00)

Daily predictions for brighter satellites

Satellite Brightness Start Highest point End
(mag) Time Altitude Azimuth Time Altitude Azimuth Time Altitude Azimuth
Centaur D AC-29 1.9 12:05:28 22° SSW 12:05:44 22° SSW 12:08:14 10° SE
Cosmos 923 Rocket 4.5 12:02:42 10° NW 12:07:25 36° W 12:12:09 10° SSW
Cosmos 2369 Rocket 2.7 12:03:45 10° S 12:09:12 59° ESE 12:14:42 10° NNE
Cosmos 1943 Rocket 2.2 12:05:16 16° SSW 12:09:46 68° WNW 12:15:25 10° NNE
METEOR-M 4.3 12:06:02 10° NNE 12:11:23 77° ESE 12:16:43 10° S
Cosmos 1378 Rocket 3.7 12:08:53 10° S 12:13:18 76° E 12:17:43 10° N
Cosmos 1727 Rocket 3.9 12:08:16 10° S 12:14:26 80° W 12:20:42 10° N
Lacrosse 5 rocket 3.5 12:21:02 12° SSW 12:21:02 12° SSW 12:21:42 10° SSW
Cosmos 2298 Rocket 4.2 12:13:54 10° S 12:19:11 74° ESE 12:24:29 10° NNE
GP-B 3.1 12:15:24 10° N 12:19:51 85° E 12:24:16 10° S
Cosmos 1733 3.0 12:16:37 10° NNW 12:20:23 70° W 12:24:06 10° S
ARIANE 5 R/B 4.4 12:20:31 10° NW 12:22:31 12° WNW 12:23:43 11° WNW
Cosmos 1356 Rocket 3.6 12:18:54 10° NNW 12:22:49 46° W 12:26:49 10° SSW
Cosmos 1674 Rocket 3.5 12:18:36 10° SSW 12:22:52 65° W 12:27:12 10° N
BREEZE-M DEB (TANK) 3.9 12:20:45 14° SW 12:24:49 80° SE 12:40:50 10° NE
Cosmos 1707 4.4 12:21:18 10° SSE 12:24:52 36° E 12:28:27 10° NNE
Abrixas rocket 1.0 12:25:08 27° WNW 12:25:59 51° SW 12:27:58 10° SE
Helios 1B 4.5 12:24:25 10° S 12:28:42 72° WSW 12:33:02 10° NNW
Cosmos 1842 3.3 12:28:12 10° SSW 12:32:01 55° W 12:35:50 10° N
Meteor 2-20 Rocket 4.4 12:27:16 10° S 12:33:22 78° W 12:39:31 10° N
ATLAS 5 CENTAUR R/B 2.7 12:29:04 10° NW 12:35:01 50° WSW 12:41:45 10° S
Cosmos 2151 Rocket 3.7 12:32:47 10° NNW 12:37:11 53° W 12:41:34 10° S
Meteor 1-21 4.4 12:31:42 10° S 12:37:23 82° E 12:43:11 10° N
Cosmos 1459 Rocket 4.5 12:35:55 10° N 12:42:17 69° E 12:48:34 10° SSE
Okean 2 Rocket 3.8 12:39:11 10° NNW 12:43:08 32° W 12:47:02 10° SSW
ATLAS 2AS CENTAUR R/B 4.0 12:37:19 10° NNW 12:44:10 45° NE 12:50:30 10° SE
Landsat 5 3.6 12:42:53 10° S 12:47:10 59° W 12:51:35 10° NNW
Meteor 1-31 Rocket 2.7 12:44:21 10° N 12:48:10 83° WNW 12:51:59 10° SSW
Milstar 3 4.1 12:39:39 10° W 12:48:17 73° S 13:05:12 10° E
CZ-4B R/B 4.0 12:51:28 10° N 12:55:39 66° WNW 12:59:56 10° SSW
